CAPE
0 0 0 0 0 0 1 1 1 2 1 2 2 3 6 6 0 0 1 0 0 1 0 0 0 6 11 3 1 0 0 3 0 2 0 1 0 0 0 1 0 4 4 2 6 9 3 2 0 1 1 4 3 1
0 0 0 0 0 1 1 1 1 1 1 2 1 0 0 4 0 0 1 1 0 1 0 0 0 2 14 4 2 1 2 10 5 0 0 0 0 0 0 0 0 6 0 9 0 0 2 4 4 3 8 8 3 3
0 0 0 0 0 1 1 1 1 1 0 1 1 0 3 3 0 0 0 0 0 0 0 0 0 0 0 0 7 0 1 0 10 1 4 0 0 0 0 0 0 0 2 0 0 0 3 4 3 9 6 2 4 3
0 0 0 0 1 1 1 1 1 0 1 0 1 0 0 0 0 0 0 1 0 0 0 0 0 0 0 0 1 0 1 9 0 0 0 1 0 1 0 1 0 0 0 0 0 1 2 7 7 8 1 1 6 7
0 0 0 0 0 0 1 1 1 0 0 0 0 0 0 0 0 0 0 0 0 0 0 0 0 0 0 0 0 0 0 0 0 0 0 0 3 1 3 5 0 1 0 0 0 4 3 6 7 12 1 1 4 3
0 0 0 0 0 0 0 1 1 0 0 0 0 0 0 0 0 1 0 0 0 0 0 0 0 0 0 0 0 0 0 0 0 0 1 2 1 1 0 3 17 3 16 6 4 5 6 7 5 6 2 3 5 4
0 0 0 0 0 0 0 0 1 0 0 0 0 0 0 0 0 0 0 0 0 0 0 0 0 0 0 0 0 0 0 0 0 0 0 2 1 2 2 2 11 3 4 4 6 1 3 5 6 3 4 4 3 5
0 0 0 0 0 0 0 0 0 0 0 0 0 0 0 0 0 0 0 0 0 0 0 0 0 0 0 0 0 0 0 0 0 0 0 0 1 2 1 7 14 12 4 2 3 6 5 7 5 3 2 2 4 2
0 0 0 0 0 0 0 0 0 0 0 0 0 0 0 0 0 0 0 0 0 0 2 1 0 0 0 1 0 0 0 1 1 0 0 0 0 0 9 8 8 28 10 4 19 1 3 3 2 3 3 3 3 2
0 0 0 0 0 0 0 0 0 0 0 0 0 1 2 0 0 0 0 1 1 1 1 0 2 0 1 1 2 1 3 1 0 0 0 0 0 5 8 3 7 21 22 8 5 0 0 3 3 2 3 4 3 3
0 0 0 0 0 0 0 0 0 0 0 0 0 0 0 0 0 0 0 0 0 0 0 0 0 0 0 1 11 0 2 0 0 0 0 0 0 0 5 2 1 3 47 22 0 0 1 4 2 2 2 3 3 3
0 0 0 0 0 0 0 0 0 0 0 0 0 0 0 0 0 0 0 0 0 0 0 0 0 0 0 0 5 1 1 1 0 0 0 0 12 0 0 0 0 0 20 34 6 1 0 0 1 2 3 2 3 2
0 0 0 0 0 0 0 0 0 0 0 0 0 0 0 0 0 0 0 0 0 0 0 0 0 0 2 0 5 14 24 1 0 0 0 6 1 4 6 0 0 0 12 53 37 14 2 0 0 0 4 2 1 1
0 0 0 0 0 0 0 0 0 1 0 0 0 0 0 0 0 0 0 0 0 0 0 0 0 2 3 9 10 10 0 0 0 0 0 7 1 9 24 5 3 2 10 23 30 40 19 8 0 0 0 2 2 4
0 0 0 0 0 0 0 0 1 1 0 0 0 0 0 0 0 0 0 0 0 0 0 0 0 0 0 0 0 0 0 0 0 0 0 0 3 11 15 0 1 15 20 20 12 27 9 31 20 8 0 5 11 7
0 0 0 0 0 0 0 1 1 0 0 0 0 6 7 0 9 0 0 0 0 0 0 0 0 0 0 0 0 0 0 0 0 0 0 0 0 0 0 0 0 6 7 0 0 0 8 16 13 21 28 12 0 0
0 0 0 0 0 0 0 0 0 0 0 1 3 12 10 1 0 0 0 0 0 0 0 0 0 0 0 0 0 0 0 0 0 0 0 0 0 0 0 0 0 1 0 0 0 0 0 0 1 0 1 0 0 1
0 0 0 0 0 1 0 0 0 0 21 73 0 7 0 0 0 0 0 0 0 0 0 0 0 0 0 0 0 0 0 0 0 0 0 0 0 0 0 0 1 0 0 0 0 0 0 0 0 0 0 0 0 0
0 0 0 0 0 0 0 0 0 4 21 0 0 0 0 0 0 0 0 0 0 0 0 0 0 1 0 0 0 0 0 0 0 0 1 0 0 0 0 0 0 0 0 0 0 0 0 0 0 0 0 0 0 0
0 0 0 0 0 0 0 0 0 3 0 1 0 0 0 4 0 0 0 0 0 0 0 0 0 0 0 0 0 0 0 0 0 23 6 0 0 0 0 0 1 3 5 0 0 0 0 0 0 0 0 0 0 0
0 0 0 0 0 0 0 0 9 0 0 0 0 0 12 0 1 0 0 0 0 1 3 0 0 0 0 0 0 0 0 0 16 25 0 0 0 0 0 0 0 0 5 12 5 0 0 0 0 0 0 0 0 0
0 0 0 0 0 3 38 13 5 0 1 4 14 6 0 0 11 0 0 2 1 1 1 0 1 6 15 31 3 1 20 10 1 0 0 0 0 0 0 0 0 0 0 0 0 13 12 0 0 0 1 2 2 6
0 0 0 0 44 0 0 0 0 0 3 3 0 3 0 0 0 0 2 8 15 10 5 0 2 11 29 37 9 5 16 21 0 0 0 0 0 0 0 0 0 0 3 6 6 15 16 0 0 0 0 5 20 26
0 0 0 0 7 0 0 0 0 0 0 0 0 0 0 0 0 0 3 10 17 20 12 53 22 30 22 18 32 31 17 0 0 0 0 0 0 0 0 0 0 0 0 3 35 58 36 19 2 0 0 2 31 26
0 0 0 0 0 0 0 0 0 0 0 0 0 0 0 0 0 0 2 2 14 18 21 26 22 4 3 7 0 0 0 0 0 0 0 0 0 0 0 0 11 0 0 35 22 50 27 22 7 2 0 2 12 17
0 0 0 0 0 0 0 0 0 0 0 0 0 0 0 0 0 0 10 8 23 53 60 56 19 2 0 0 0 0 0 0 0 0 0 0 0 0 4 4 9 6 0 9 24 15 21 22 23 1 6 0 0 15
0 0 0 0 0 0 0 0 0 0 0 0 0 0 0 0 0 0 2 32 58 15 0 0 0 0 0 0 0 0 0 0 0 0 0 0 0 0 0 1 2 2 2 0 9 7 4 4 4 11 6 3 14 13
0 0 0 0 0 0 0 0 0 0 10 1 0 0 0 0 0 0 0 0 0 0 0 0 0 0 0 0 0 0 0 0 0 0 0 0 0 0 0 0 0 0 7 4 13 7 11 9 6 4 0 0 0 0
0 0 0 0 0 0 0 6 0 0 8 0 0 0 0 0 0 0 0 0 0 0 0 0 0 0 0 0 0 0 0 0 0 0 0 0 1 0 0 0 0 0 1 4 0 0 3 21 10 8 0 4 3 1
0 0 0 1 13 21 60 0 0 0 0 0 0 0 0 0 0 0 0 0 0 0 0 0 0 0 0 0 0 0 0 0 0 0 0 0 0 0 0 0 0 0 1 2 2 1 0 2 1 3 1 2 6 8
0 0 2 22 72 27 0 0 0 0 0 0 0 0 0 0 0 0 0 0 0 0 0 0 0 0 0 0 0 0 0 0 0 0 0 0 0 0 0 0 0 0 0 0 0 1 2 3 3 3 1 0 0 1
0 25 70 128 132 0 0 0 0 0 0 0 0 0 0 0 0 0 0 0 0 0 0 0 0 0 0 0 0 0 0 0 0 0 0 0 0 0 0 0 0 0 0 0 0 0 0 0 0 0 0 0 0 0
93 25 6 29 17 8 1 0 0 0 0 0 0 0 0 0 0 0 0 0 0 0 0 0 0 0 0 0 0 0 0 0 0 0 0 0 0 0 0 0 0 0 0 0 0 0 0 0 0 0 0 0 0 0
CIN
-0 -0 -0 -0 -0 -0 -0 -0 -0 -1 -2 -3 -7 -7 -13 -11 -0 -0 -0 -0 -0 -1 -0 -0 -4 -8 -1 -0 -0 -0 -0 -0 -4 -0 -0 -0 -0 -0 -0 -0 -0 -0 -0 -0 -0 -0 -0 -0 -0 -0 -0 -0 -0 -0
-0 -0 -0 -0 -0 -0 -0 -0 -0 -1 -3 -3 -7 -8 -17 -17 -0 -0 -0 -0 -0 -0 -0 -0 -0 -20 -0 -3 -0 -4 -0 -0 -2 -0 -0 -0 -0 -0 -0 -0 -0 -2 -0 -1 -0 -0 -0 -0 -0 -0 -0 -0 -0 -0
-0 -0 -0 -0 -0 -0 -0 -0 -0 -0 -0 -1 -3 -0 -8 -16 -0 -0 -0 -0 -1 -0 -0 -0 -0 -0 -0 -0 -11 -0 -1 -4 -0 -3 -0 -0 -0 -0 -0 -0 -0 -0 -0 -0 -0 -0 -0 -0 -0 -0 -1 -0 -0 -0
-0 -0 -0 -0 -0 -0 -0 -0 -0 -0 -0 -0 -2 -0 -0 -0 -0 -0 -0 -0 -0 -0 -0 -0 -0 -0 -0 -10 -9 -4 -0 -2 -1 -0 -0 -0 -0 -0 -0 -0 -0 -0 -0 -0 -0 -0 -0 -0 -0 -0 -0 -0 -0 -0
-0 -0 -0 -0 -0 -0 -0 -0 -0 -0 -0 -0 -0 -0 -0 -0 -0 -0 -0 -0 -0 -0 -0 -0 -0 -0 -0 -0 -0 -0 -0 -0 -0 -0 -0 -0 -0 -0 -0 -0 -0 -0 -0 -0 -0 -0 -0 -0 -0 -0 -0 -0 -0 -0
-0 -0 -0 -0 -0 -0 -0 -0 -0 -0 -0 -0 -0 -0 -0 -0 -0 -6 -0 -0 -0 -0 -0 -0 -0 -0 -0 -0 -0 -0 -0 -0 -0 -0 -0 -0 -0 -0 -0 -0 -0 -0 -0 -0 -0 -0 -0 -0 -0 -0 -0 -0 -0 -0
-0 -0 -0 -0 -0 -0 -0 -0 -0 -0 -0 -0 -0 -0 -0 -0 -0 -0 -0 -0 -0 -0 -0 -0 -0 -0 -0 -0 -0 -0 -0 -0 -0 -0 -0 -0 -0 -0 -4 -0 -0 -0 -0 -0 -0 -0 -0 -0 -0 -0 -0 -0 -0 -0
-0 -0 -0 -0 -0 -0 -0 -0 -0 -0 -0 -0 -0 -0 -0 -0 -0 -0 -0 -0 -0 -0 -0 -0 -0 -0 -0 -0 -0 -0 -0 -0 -0 -0 -0 -0 -0 -8 -2 -4 -7 -1 -1 -0 -0 -0 -0 -0 -0 -0 -0 -0 -0 -0
-0 -0 -0 -0 -0 -0 -0 -0 -0 -0 -0 -0 -0 -0 -0 -0 -0 -0 -0 -0 -0 -0 -0 -0 -0 -0 -0 -0 -0 -0 -0 -0 -0 -0 -0 -0 -0 -0 -1 -6 -12 -2 -2 -0 -0 -0 -0 -0 -0 -0 -0 -0 -0 -0
-0 -0 -0 -0 -0 -0 -0 -0 -0 -0 -0 -0 -0 -0 -0 -0 -0 -0 -0 -0 -0 -0 -0 -0 -0 -0 -0 -0 -5 -0 -0 -0 -0 -0 -4 -0 -0 -7 -8 -13 -44 -26 -14 -12 -9 -0 -0 -0 -0 -0 -0 -0 -0 -0
-0 -0 -0 -0 -0 -0 -0 -0 -0 -0 -0 -0 -0 -0 -0 -0 -0 -0 -0 -0 -0 -0 -0 -0 -0 -0 -0 -3 -5 -0 -0 -0 -0 -0 -0 -0 -0 -0 -10 -16 -29 -44 -16 -17 -8 -0 -0 -0 -0 -0 -0 -0 -0 -0
-0 -0 -0 -0 -0 -0 -0 -0 -0 -0 -0 -0 -0 -0 -0 -0 -0 -0 -0 -0 -0 -0 -0 -0 -0 -0 -0 -1 -9 -1 -0 -4 -0 -0 -0 -0 -1 -1 -0 -6 -0 -0 -40 -20 -34 -12 -0 -0 -0 -0 -0 -0 -0 -0
-0 -0 -0 -0 -0 -0 -0 -0 -0 -0 -0 -0 -0 -0 -0 -0 -0 -0 -0 -0 -0 -0 -0 -0 -0 -0 -0 -0 -17 -12 -0 -1 -0 -0 -0 -1 -8 -8 -18 -0 -4 -43 -40 -24 -23 -37 -38 -0 -0 -0 -0 -0 -0 -0
-0 -0 -0 -0 -0 -0 -0 -0 -0 -0 -0 -0 -0 -0 -0 -0 -0 -0 -0 -0 -0 -0 -0 -0 -0 -53 -0 -24 -21 -2 -0 -0 -0 -0 -0 -1 -0 -11 -16 -26 -29 -32 -32 -23 -12 -25 -31 -34 -0 -0 -0 -0 -0 -0
-0 -0 -0 -0 -0 -0 -0 -0 -0 -0 -0 -0 -0 -0 -0 -5 -0 -0 -0 -0 -0 -0 -0 -0 -0 -0 -0 -0 -0 -0 -0 -0 -0 -0 -0 -0 -20 -23 -17 -19 -30 -27 -23 -22 -25 -18 -14 -29 -25 -13 -0 -6 -1 -1
-0 -0 -0 -0 -0 -0 -0 -0 -0 -0 -0 -0 -0 -39 -38 -6 -14 -0 -0 -0 -0 -0 -0 -0 -0 -0 -0 -0 -0 -0 -0 -0 -0 -0 -0 -0 -0 -0 -0 -3 -0 -36 -30 -2 -0 -0 -29 -21 -18 -22 -13 -8 -0 -0
-0 -0 -0 -0 -0 -0 -0 -0 -0 -0 -0 -12 -19 -79 -65 -2 -2 -0 -0 -0 -0 -0 -0 -0 -0 -0 -0 -0 -0 -0 -0 -0 -0 -0 -0 -0 -0 -0 -0 -0 -48 -29 -0 -0 -0 -0 -0 -0 -3 -2 -18 -0 -0 -15
-0 -0 -0 -0 -0 -0 -0 -0 -0 -0 -48 -35 -1 -36 -0 -0 -0 -0 -0 -0 -0 -0 -0 -0 -0 -0 -0 -0 -0 -0 -0 -0 -0 -0 -0 -21 -0 -0 -0 -0 -39 -0 -0 -0 -0 -0 -0 -0 -0 -0 -0 -0 -0 -0
-0 -0 -0 -0 -0 -0 -0 -0 -0 -13 -52 -0 -0 -0 -0 -0 -0 -0 -0 -0 -0 -0 -0 -0 -0 -3 -0 -0 -0 -0 -0 -0 -0 -0 -15 -9 -0 -0 -0 -0 -0 -0 -0 -0 -0 -0 -0 -0 -0 -0 -0 -0 -0 -0
-0 -0 -0 -0 -0 -0 -0 -0 -0 -11 -0 -7 -0 -0 -0 -35 -50 -0 -0 -0 -0 -0 -0 -0 -0 -0 -0 -0 -0 -2 -0 -0 -0 -4 -2 -0 -0 -0 -0 -0 -17 -15 -17 -0 -0 -0 -0 -0 -0 -0 -0 -0 -0 -0
-0 -0 -0 -0 -0 -0 -0 -0 -60 -82 -0 -18 -0 -0 -98 -0 -115 -0 -0 -0 -0 -19 -9 -13 -0 -0 -0 -0 -0 -0 -0 -0 -14 -10 -0 -0 -0 -0 -0 -0 -0 -11 -6 -5 -5 -0 -0 -0 -30 -0 -0 -0 -0 -0
-0 -0 -0 -0 -0 -32 -97 -125 -79 -17 -67 -69 -104 -132 -82 -0 -79 -0 -0 -43 -7 -19 -15 -0 -5 -32 -27 -29 -17 -3 -44 -53 -5 -0 -0 -0 -0 -0 -0 -0 -0 -18 -0 -0 -0 -12 -18 -0 -0 -0 -13 -17 -18 -10
-0 -0 -0 -0 -102 -0 -0 -0 -0 -0 -35 -66 -0 -55 -0 -0 -0 -0 -51 -34 -34 -58 -56 -0 -23 -65 -43 -47 -76 -75 -71 -48 -0 -0 -0 -0 -0 -0 -0 -0 -0 -2 -10 -28 -40 -32 -31 -0 -0 -0 -0 -5 -2 -2
-0 -0 -0 -48 -127 -0 -0 -0 -0 -0 -0 -0 -0 -0 -0 -0 -0 -0 -18 -11 -36 -54 -43 -38 -47 -18 -23 -33 -19 -33 -55 -7 -0 -0 -0 -0 -0 -0 -0 -0 -0 -0 -0 -21 -13 -14 -17 -25 -11 -0 -0 -3 -2 -1
-0 -0 -0 -0 -0 -0 -0 -0 -0 -0 -0 -0 -0 -0 -0 -0 -0 -0 -13 -3 -17 -25 -28 -43 -42 -36 -21 -15 -5 -0 -0 -0 -0 -0 -0 -0 -0 -1 -0 -0 -9 -0 -0 -6 -12 -8 -13 -19 -1 -1 -0 -5 -1 -1
-0 -0 -0 -0 -0 -0 -0 -0 -0 -0 -0 -0 -0 -0 -0 -0 -0 -0 -5 -7 -11 -19 -22 -23 -24 -24 -0 -0 -0 -0 -0 -0 -0 -0 -0 -0 -0 -0 -3 -3 -0 -2 -0 -15 -6 -3 -4 -9 -0 -2 -1 -1 -0 -1
-0 -0 -0 -0 -0 -0 -0 -0 -0 -0 -0 -0 -0 -0 -0 -0 -0 -0 -14 -47 -36 -26 -0 -0 -0 -0 -0 -0 -0 -0 -0 -0 -0 -0 -0 -0 -0 -0 -1 -0 -1 -6 -12 -0 -4 -1 -1 -1 -1 -1 -1 -6 -4 -3
-0 -0 -0 -0 -0 -0 -0 -0 -0 -0 -76 -108 -0 -0 -0 -0 -0 -0 -0 -0 -0 -0 -0 -0 -0 -0 -0 -0 -0 -0 -0 -0 -0 -0 -0 -0 -0 -0 -0 -0 -0 -0 -11 -11 -3 -4 -2 -1 -0 -5 -4 -10 -0 -0
-0 -0 -0 -8 -0 -0 -14 -71 -0 -0 -150 -0 -0 -0 -0 -0 -0 -0 -0 -0 -0 -0 -0 -0 -0 -0 -0 -0 -0 -0 -0 -0 -0 -0 -0 -0 -0 -0 -0 -0 -0 -0 -2 -0 -1 -2 -9 -3 -2 -3 -0 -9 -11 -5
-0 -0 -0 -10 -58 -33 -55 -0 -0 -0 -0 -0 -0 -0 -0 -0 -0 -0 -0 -0 -0 -0 -0 -0 -0 -0 -0 -0 -0 -0 -0 -0 -0 -0 -0 -0 -0 -0 -0 -0 -0 -0 -1 -0 -0 -1 -6 -0 -1 -3 -0 -1 -1 -1
-0 -0 -60 -86 -57 -126 -0 -0 -0 -0 -0 -0 -0 -0 -0 -0 -0 -0 -0 -0 -0 -0 -0 -0 -0 -0 -0 -0 -0 -0 -0 -0 -0 -0 -0 -0 -0 -0 -0 -0 -0 -0 -0 -0 -1 -2 -0 -3 -1 -1 -1 -0 -0 -0
-0 -76 -60 -40 -75 -0 -0 -0 -0 -0 -0 -0 -0 -0 -0 -0 -0 -0 -0 -0 -0 -0 -0 -0 -0 -0 -0 -0 -0 -0 -0 -0 -0 -0 -0 -0 -0 -0 -0 -0 -0 -0 -0 -0 -0 -0 -0 -0 -0 -0 -0 -0 -0 -1
-90 -124 -103 -136 -161 -168 -66 -7 -0 -0 -0 -0 -0 -0 -0 -0 -0 -0 -0 -0 -0 -0 -0 -0 -0 -0 -0 -0 -0 -0 -0 -0 -0 -0 -0 -0 -0 -0 -0 -0 -0 -0 -0 -0 -0 -0 -0 -0 -0 -0 -0 -0 -0 -0
Wind_Speed
19 18 8 11 20 20 20 22 20 20 19 19 20 18 19 20 20 21 22 20 22 23 23 25 24 22 19 18 17 12 13 13 14 16 15 16 15 14 13 19 21 16 7 28 31 34 40 21 25 32 31 29 28 28
18 16 12 15 20 20 19 20 20 23 21 21 21 21 19 20 19 20 21 20 19 21 21 19 17 15 18 16 15 15 14 13 13 13 16 15 17 15 19 21 17 18 16 21 26 28 26 26 29 30 28 30 30 29
16 16 25 17 22 20 21 21 21 22 22 22 20 20 20 21 19 19 19 19 19 21 19 22 24 20 18 18 16 17 18 16 15 16 13 14 15 14 15 17 15 13 15 18 22 24 29 32 27 26 29 30 30 29
15 17 30 21 22 21 23 23 23 22 20 20 20 21 20 19 19 18 18 17 19 19 23 21 18 21 20 20 19 17 15 16 15 16 12 16 13 12 15 11 10 8 8 12 13 23 24 24 28 27 27 26 27 26
16 15 30 27 22 21 23 22 21 19 19 18 18 18 18 18 17 17 17 16 16 19 19 17 17 16 18 21 21 21 20 20 20 17 15 20 13 12 13 10 20 10 18 19 17 21 22 26 27 26 28 29 28 26
17 17 31 29 22 20 21 20 19 17 17 17 16 15 16 16 16 16 16 15 14 16 17 18 16 15 15 17 18 19 18 20 22 22 22 18 13 5 7 9 7 16 15 20 17 19 20 23 23 25 24 28 28 28
17 20 12 25 19 15 17 17 15 14 15 16 16 14 14 14 14 16 17 16 15 16 16 15 16 16 15 13 15 14 16 18 21 21 22 18 18 20 24 12 25 16 16 18 18 20 19 19 22 24 22 25 22 22
17 6 16 19 15 11 11 13 14 13 13 14 15 14 13 13 12 14 15 15 16 17 16 16 15 15 15 14 14 14 13 14 18 19 20 23 16 15 23 25 27 28 17 22 18 18 21 22 22 19 16 18 20 22
18 5 19 17 1 9 8 10 12 13 12 14 15 15 15 14 15 15 15 15 14 15 15 15 16 18 16 15 16 17 15 16 16 19 21 21 23 2 6 17 25 27 27 29 24 24 25 22 19 17 14 15 18 22
15 16 22 21 12 3 9 10 12 14 14 15 15 15 15 15 15 16 15 16 15 16 15 16 14 19 14 16 18 19 17 17 17 18 18 24 26 19 20 9 11 7 16 25 30 26 26 26 24 20 18 15 15 16
8 20 25 23 21 4 12 13 14 16 16 15 15 15 15 14 14 15 16 17 17 16 15 16 16 21 15 20 20 18 18 18 19 18 17 21 27 27 27 30 29 18 5 22 23 25 25 25 25 24 19 17 17 17
3 22 26 24 25 18 16 14 14 14 14 15 15 16 15 15 15 15 16 16 15 15 17 17 18 17 17 17 19 19 20 19 20 18 19 20 25 25 28 28 28 27 26 22 21 22 23 25 25 24 23 20 20 19
14 25 27 18 13 15 16 13 12 17 17 16 15 16 16 15 15 16 17 16 15 13 15 16 17 16 17 18 19 19 20 21 18 20 20 21 24 25 27 29 28 27 26 25 24 24 22 22 24 24 24 23 23 22
23 27 27 9 13 16 16 13 11 14 17 15 15 15 15 15 11 13 13 14 14 13 15 16 16 16 16 17 19 20 20 19 21 23 23 23 22 24 27 28 28 27 26 26 25 24 24 23 23 23 22 23 24 23
24 27 20 17 18 18 16 13 12 14 15 14 14 14 14 12 14 13 13 14 16 18 18 17 17 16 18 18 19 20 20 21 22 22 20 22 22 23 25 26 27 25 25 25 26 24 24 24 23 23 23 22 22 22
24 18 14 18 23 20 16 14 13 12 12 12 11 11 12 14 12 17 14 13 17 17 17 16 16 18 20 20 20 20 24 24 22 19 20 20 21 25 25 25 24 21 23 24 25 24 23 23 23 23 23 21 21 20
21 13 12 23 26 15 13 14 14 13 14 14 15 11 11 14 19 19 22 19 18 15 18 17 19 20 19 19 22 22 24 21 19 19 20 19 20 24 26 24 22 19 21 24 25 24 23 23 22 22 22 21 20 20
10 12 4 5 16 15 13 12 13 13 15 13 13 18 17 16 19 19 18 21 16 17 21 17 16 19 21 23 23 22 19 19 18 18 20 20 19 21 23 24 21 17 20 22 24 24 23 23 22 22 23 22 20 21
11 13 10 9 12 13 12 13 13 14 13 14 14 16 19 19 22 21 23 24 24 22 19 17 16 20 23 22 21 23 19 19 21 19 19 18 18 21 22 22 19 19 21 22 23 23 23 22 22 22 22 22 19 19
11 8 8 12 13 13 13 13 14 13 13 15 17 18 19 19 21 22 23 23 23 21 22 19 18 20 20 21 19 19 19 19 18 19 22 19 21 22 22 21 19 17 20 21 21 22 23 21 20 20 22 21 18 18
13 15 18 16 15 13 13 14 13 12 12 14 16 18 17 19 22 23 23 23 22 25 24 21 20 18 16 18 18 17 18 17 17 18 20 20 21 21 21 21 21 21 21 21 22 21 23 20 18 19 20 18 16 16
15 12 14 15 15 15 15 15 15 14 15 16 17 17 17 18 19 22 21 23 23 24 22 21 19 20 20 19 18 17 18 17 17 18 19 19 20 21 22 23 23 23 23 23 22 22 22 17 17 18 17 16 16 16
10 14 14 15 15 15 15 15 16 19 18 19 18 19 20 20 20 18 22 22 21 20 21 19 18 18 16 15 16 16 16 16 17 18 19 20 20 21 23 24 25 22 21 23 22 22 19 16 15 16 16 16 15 15
12 15 15 15 15 16 15 17 19 19 19 22 23 22 22 21 19 21 22 21 20 19 20 19 17 13 14 15 16 15 15 17 17 18 18 19 19 21 23 22 21 22 22 20 19 18 17 15 13 15 16 15 16 17
14 14 13 15 16 17 18 19 21 22 23 23 24 24 22 20 21 21 23 22 20 18 17 15 13 13 14 14 16 17 17 16 16 17 17 17 20 23 21 20 21 21 20 19 18 18 18 17 14 11 14 15 15 15
15 18 10 15 17 18 18 19 20 21 21 22 23 22 21 21 22 23 21 21 19 18 15 12 12 13 15 16 16 18 18 17 17 19 19 19 21 22 22 22 20 19 18 16 15 17 16 16 14 11 14 14 14 14
11 14 14 15 16 17 18 18 18 18 19 20 21 23 23 24 23 21 18 17 17 16 12 12 14 15 18 19 20 21 21 21 22 22 22 22 24 23 24 22 20 19 16 17 17 17 18 17 8 12 13 14 14 14
12 11 12 14 15 15 17 18 18 18 18 17 19 22 23 23 21 19 18 17 17 18 19 21 21 22 23 23 23 23 23 23 23 24 24 24 23 23 23 21 18 17 17 17 16 17 18 18 16 17 15 11 14 14
11 11 12 13 13 13 14 15 16 15 16 16 17 18 19 19 19 19 18 18 19 19 20 21 22 22 23 23 23 22 20 18 18 20 21 22 22 22 20 19 18 18 18 18 18 17 18 19 20 18 16 14 14 15
10 11 12 13 14 14 15 14 15 14 14 15 16 16 17 17 17 17 17 18 18 19 19 20 20 19 20 21 22 24 23 22 22 23 22 22 21 20 20 20 20 19 18 17 18 20 20 20 18 17 16 15 14 14
12 11 12 12 13 14 14 14 15 15 15 14 14 14 15 15 16 16 16 17 18 19 20 19 20 20 20 20 21 23 24 23 24 25 24 23 21 21 20 20 19 19 19 19 20 20 19 19 18 17 15 13 12 11
15 13 12 13 15 15 14 13 13 12 13 13 13 14 14 13 14 13 13 16 17 17 17 18 19 20 21 22 23 24 24 24 23 23 22 22 21 21 20 20 20 20 21 21 20 20 19 17 16 14 13 13 13 12
12 12 12 13 15 14 13 14 13 14 14 14 13 12 11 13 14 13 14 14 15 16 17 18 20 20 21 22 23 23 24 24 24 25 24 24 23 23 22 21 20 21 21 20 19 19 18 17 17 17 17 15 15 15
Wind_Direction
28 30 16 20 29 32 34 33 37 43 54 61 68 77 79 74 78 66 61 68 58 50 49 49 50 54 64 77 76 96 105 88 82 74 80 74 78 83 100 107 125 134 239 246 245 243 240 270 256 241 245 254 253 252
29 30 28 28 29 34 37 38 42 41 52 59 59 60 79 78 81 69 62 62 65 55 54 60 67 75 76 84 92 92 86 84 88 89 79 89 82 98 91 92 121 111 155 258 249 246 257 259 253 252 256 253 251 250
29 27 18 29 29 35 36 38 43 48 50 52 64 75 79 78 78 67 63 69 67 58 59 58 58 76 81 84 102 90 88 90 88 82 102 96 98 99 102 105 113 124 156 158 265 256 256 252 248 259 253 253 251 250
29 26 7 26 29 34 34 37 39 46 60 63 67 72 73 73 74 72 71 73 64 58 46 53 71 66 71 75 87 95 91 88 89 86 117 90 106 103 93 128 130 142 141 186 122 259 256 245 252 260 256 255 251 251
27 27 4 12 28 33 33 37 42 53 57 62 71 73 75 81 78 71 67 77 72 58 50 58 65 75 70 68 77 76 79 78 74 82 19 359 98 98 93 123 70 284 327 321 315 277 256 250 270 258 256 249 251 250
26 26 354 3 27 34 35 41 48 58 64 66 74 81 79 83 76 67 61 74 73 66 60 62 69 74 80 70 66 66 70 62 62 68 72 82 91 196 142 116 298 309 309 313 265 278 273 284 279 283 262 248 250 248
27 22 276 13 30 43 44 50 62 71 70 68 66 76 89 88 75 62 57 60 72 67 64 66 68 72 76 80 71 81 71 64 59 68 66 80 80 349 5 306 325 315 320 327 319 309 287 295 293 294 272 252 256 254
25 18 279 26 40 53 60 61 66 74 80 77 72 69 76 73 71 64 63 72 71 60 71 70 66 68 79 72 68 74 78 81 64 65 64 60 81 92 351 330 339 345 319 339 333 327 321 311 312 300 281 270 260 257
22 297 286 282 250 60 75 76 70 76 82 74 66 59 59 65 58 52 64 68 66 61 69 71 59 57 67 65 69 72 79 74 69 58 57 59 54 127 309 311 331 347 358 354 339 342 344 339 324 315 307 295 271 263
26 273 288 288 265 117 71 77 67 61 64 62 57 59 54 51 55 57 62 55 57 57 58 49 62 43 68 64 61 61 71 71 63 57 58 39 36 56 53 70 295 273 18 344 357 348 342 348 344 334 331 305 298 297
35 278 294 291 284 121 52 56 51 49 49 52 49 51 46 55 57 60 49 44 45 44 49 37 39 28 57 41 45 55 53 55 48 51 52 38 19 19 19 7 9 333 188 336 341 347 348 343 346 347 335 326 322 316
260 281 294 288 300 20 33 47 50 48 45 43 40 41 50 55 57 59 49 46 46 44 32 28 26 28 33 43 35 42 40 44 38 47 41 33 16 16 354 339 340 354 15 337 327 334 341 349 350 349 349 340 335 333
266 287 292 269 30 29 37 48 59 32 35 37 45 44 46 56 54 48 37 38 39 39 34 29 24 32 29 26 22 30 30 30 44 31 28 25 12 8 2 346 337 343 348 2 4 346 334 337 344 348 350 351 351 347
283 292 293 40 38 26 32 46 58 43 34 42 43 39 48 43 66 50 40 31 31 31 25 21 28 36 37 31 22 20 23 29 23 17 17 16 17 9 354 347 342 334 340 340 336 343 341 337 335 338 340 339 344 348
288 297 342 26 12 14 27 41 65 51 44 46 44 46 47 45 29 28 28 25 27 26 24 30 28 31 31 28 28 20 18 14 13 15 19 17 18 13 6 359 349 342 341 339 339 333 331 330 326 324 326 327 331 340
290 318 48 21 356 9 32 56 57 59 57 63 70 52 41 27 27 22 20 22 24 27 32 33 26 22 25 27 22 19 7 6 12 19 17 19 19 12 4 358 357 2 352 348 342 338 339 338 335 331 332 333 334 332
284 56 48 354 336 40 66 52 55 52 53 52 39 46 28 14 8 13 8 12 15 20 19 27 18 17 21 20 14 13 10 15 21 20 17 16 16 11 360 356 358 1 356 352 341 342 342 340 343 343 342 340 344 345
68 56 136 142 43 53 59 63 54 56 39 42 37 26 26 24 16 19 23 14 33 27 21 24 21 20 17 10 13 16 23 26 24 22 20 17 18 16 11 358 360 5 354 348 350 342 338 337 336 336 336 335 340 342
238 244 222 154 89 72 80 82 76 51 53 44 40 32 27 29 27 27 25 23 33 36 34 39 33 22 17 17 20 18 23 22 21 25 25 27 29 22 15 11 13 359 349 342 340 341 336 335 335 334 334 332 333 339
229 125 108 74 78 87 83 78 70 66 63 47 38 35 32 38 34 33 27 25 30 41 38 38 32 20 22 24 27 29 29 32 37 32 26 37 33 29 26 25 29 27 3 351 347 340 338 335 334 334 335 335 336 339
74 66 50 65 69 94 85 72 77 76 65 56 47 43 45 43 37 38 31 23 38 31 31 36 37 37 39 34 36 41 44 50 51 43 38 34 32 33 33 28 20 12 3 357 350 343 335 334 333 333 333 336 341 343
51 89 92 78 67 77 75 65 57 52 50 48 50 51 54 46 45 38 37 38 34 31 37 42 48 46 44 49 57 63 54 55 49 46 42 38 34 30 22 15 9 1 352 345 341 338 339 344 338 335 338 345 343 341
183 112 108 91 121 98 87 78 68 53 50 46 48 48 50 49 49 51 45 44 42 47 47 53 57 58 69 73 64 60 54 52 50 47 42 40 38 35 27 19 10 6 1 352 344 335 332 336 339 339 325 333 341 342
167 137 91 125 99 80 79 68 57 53 56 49 47 50 50 52 54 53 49 49 51 59 58 62 70 82 76 65 56 54 54 48 46 42 44 43 41 30 21 19 20 9 1 7 5 354 347 343 333 334 319 326 327 330
29 38 321 109 80 69 64 59 52 52 53 52 50 51 53 55 51 53 50 50 55 61 65 72 78 74 65 58 54 54 54 51 47 43 46 51 46 31 30 37 31 26 22 28 20 1 346 336 332 333 324 329 334 337
86 147 250 7 49 62 62 59 56 54 55 54 52 53 54 53 52 50 52 54 60 63 71 79 72 66 59 58 57 53 50 53 55 53 58 58 47 48 47 52 60 64 64 77 97 36 16 36 13 17 324 330 333 340
37 96 85 83 57 58 54 54 56 57 54 55 51 49 50 47 48 53 59 62 62 64 80 81 72 67 63 62 61 58 60 61 61 64 68 63 63 64 64 72 81 91 104 112 121 130 131 135 302 330 320 309 324 333
323 45 66 55 55 59 51 51 52 55 56 61 56 51 50 50 52 57 61 63 67 68 68 67 66 66 65 64 64 64 63 65 67 69 72 73 73 74 77 86 98 109 111 113 119 124 128 127 140 143 161 290 334 329
323 11 52 45 57 62 63 53 54 60 63 62 56 54 55 59 61 62 66 70 73 72 70 66 69 70 68 65 62 61 65 74 78 78 79 79 80 79 86 93 99 105 113 111 112 120 123 126 123 131 138 146 150 150
8 64 42 53 48 54 50 64 57 65 67 63 62 61 61 62 62 68 73 76 74 72 73 73 73 74 69 66 62 62 68 73 79 82 84 85 86 90 95 99 100 105 111 113 113 114 113 114 119 124 127 129 133 139
35 63 41 53 40 40 46 53 60 63 61 63 62 62 63 65 66 70 78 79 77 76 76 77 72 69 66 67 69 69 70 76 77 79 83 88 92 95 100 103 104 104 107 111 111 112 112 112 114 117 120 125 131 141
115 109 63 31 27 32 49 56 59 63 58 56 59 64 67 67 61 67 86 87 83 81 84 82 79 70 66 68 72 73 76 81 84 86 87 88 92 97 100 103 104 104 105 106 106 109 110 112 113 114 115 116 119 124
67 69 63 52 40 43 53 56 58 54 52 49 60 70 71 63 55 66 89 103 91 89 89 85 80 77 73 70 72 76 78 80 82 84 88 91 94 96 98 99 101 102 102 103 104 105 107 108 107 107 106 106 107 109